Weather Roundup
Issued by NWS

Home | Current Version | Previous Version | Graphics & Text | Print | Product List | Glossary Off
Versions: 1 2 3 4 5 6 7 8 9 10 11 12 13 14 15 16 17 18 19 20 21 22 23 24 25 26 27 28 29 30 31 32 33 34 35 36 37 38 39 40 41 42 43 44 45 46 47 48 49 50

000
NZUS93 KARX 300010
HRRWXR

CURRENT HOURLY OBSERVATIONS ACROSS
MUCH OF THE UPPER MISSISSIPPI VALLEY
NATIONAL WEATHER SERVICE LA CROSSE WI
700 PM CDT THU SEP 29 2016


...SOUTHEAST MINNESOTA...


CITY           SKY/WX    TMP DP  RH WIND       PRES   REMARKS
ROCHESTER      CLEAR     61  50  67 N8        30.38S
ROCHESTER/MAYO NOT AVBL
WINONA         CLEAR     61  52  72 NW3       30.36S
AUSTIN         CLEAR     61  48  63 N3        30.36S
ALBERT LEA     CLEAR     63  48  59 N5        30.37S
DODGE CENTER   CLEAR     63  48  59 N6        30.38S
PRESTON        CLEAR     60  50  70 N6        30.36S
OWATONNA       CLEAR     63  48  59 N5        30.38S
FARIBAULT      CLEAR     61  50  67 N3        30.39S
$$

...ELSEWHERE IN MINNESOTA...


CITY           SKY/WX    TMP DP  RH WIND       PRES   REMARKS
MINNEAPOLIS    CLEAR     64  50  60 VRB6      30.40R
INTNL FALLS    CLOUDY    55  49  80 SE3       30.47S
DULUTH         PTCLDY    53  47  79 E6        30.46F
RED WING       CLEAR     64  50  59 NE3       30.36S
REDWOOD FALLS  CLEAR     63  47  55 E5        30.38F
MANKATO        CLEAR     62  50  64 NE6       30.39S
WORTHINGTON    CLEAR     61  48  62 NE7       30.38S
FAIRMONT       CLEAR     62  48  60 NE6       30.38S
$$

...SOUTHWEST WISCONSIN...


CITY           SKY/WX    TMP DP  RH WIND       PRES   REMARKS
LA CROSSE      CLEAR     66  53  63 N6        30.34R
PRAIRIE DU CHI CLEAR     66  49  54 CALM      30.30R
BOSCOBEL       CLEAR     65  48  54 CALM      30.31R
LONE ROCK      CLEAR     64  45  49 NE6       30.31R
PLATTEVILLE    CLEAR     65  50  60 NE6       30.30R
FORT MC COY    CLEAR     63  54  70 N3        30.35S
CAMP DOUGLAS   CLEAR     63  51  64 N3        30.33S
MAUSTON-NEW LI NOT AVBL
VIROQUA        FAIR      61  51  70 N5        30.34S
WIS DELLS      CLEAR     62  43  49 NE5       30.32R
$$

...ELSEWHERE IN WISCONSIN...


CITY           SKY/WX    TMP DP  RH WIND       PRES   REMARKS
MILWAUKEE      CLOUDY    62  58  86 N16G24    30.27S
MADISON        PTCLDY    64  52  64 NE12      30.30R
GREEN BAY      CLEAR     62  54  74 NE14      30.34S
EAU CLAIRE     CLEAR     63  52  67 N5        30.37S
BLACK RVR FLS  FAIR      61  52  71 N3        30.35S
MEDFORD        CLEAR     58  51  78 N5        30.39S
WAUSAU         CLEAR     64  50  60 NE6       30.36S
WIS RAPIDS     CLEAR     63  50  62 NE5       30.36S
MARSHFIELD     CLEAR     65  49  56 NE7       30.36S
RICE LAKE      CLEAR     62  51  68 N8        30.41S
$$

...NORTHEAST IOWA...


CITY           SKY/WX    TMP DP  RH WIND       PRES   REMARKS
WATERLOO       CLEAR     63  47  55 N8        30.30R
DUBUQUE        CLEAR     64  50  60 NE9       30.29R
DECORAH        CLEAR     63  52  67 N5        30.33S
MASON CITY     CLEAR     63  46  54 N7        30.36S
CHARLES CITY   CLEAR     64  46  52 N7        30.34S
OELWEIN        CLEAR     64  52  63 N9        30.32S
$$

...ELSEWHERE IN IOWA...


CITY           SKY/WX    TMP DP  RH WIND       PRES   REMARKS
DES MOINES     CLEAR     70  46  42 N7        30.29S
IOWA CITY      CLEAR     69  49  48 N10       30.27R
FORT DODGE     CLEAR     63  48  59 N5        30.34S
MARSHALLTOWN   CLEAR     65  47  52 N8        30.29S
CEDAR RAPIDS   CLEAR     68  50  52 NE10      30.27R
$$

...NORTHERN ILLINOIS...


CITY           SKY/WX    TMP DP  RH WIND       PRES   REMARKS
CHICAGO-OHARE  CLOUDY    63  57  81 NE10      30.22R
CHICAGO-MIDWAY CLOUDY    65  56  72 NE16G24   30.20R
MOLINE         CLOUDY    68  54  60 NE16G23   30.24R
ROCKFORD       MOCLDY    65  53  65 NE13      30.27S
PEORIA         PTCLDY    62  59  90 NE7       30.20S
$$

NOTE: "FAIR" INDICATES FEW OR NO CLOUDS BELOW 12,000 FEET WITH NO
SIGNIFICANT WEATHER AND/OR OBSTRUCTIONS TO VISIBILITY. WIND
SPEEDS ARE IN MILES-PER-HOUR.




USA.gov is the U.S. government's official web portal to all federal, state and local government web resources and services.